Regional Weather Roundup
Issued by NWS

Home | Current Version | Previous Version | Graphics & Text | Print | Product List | Glossary On
Versions: 1 2 3 4 5 6 7 8 9 10 11 12 13 14 15 16 17 18 19 20 21 22 23 24 25 26 27 28 29 30 31 32 33 34 35 36 37 38 39 40 41 42 43 44 45 46 47 48 49 50
000
ASUS43 KMPX 061010
RWRMN
WEATHER ROUNDUP FOR MINNESOTA
NATIONAL WEATHER SERVICE TWIN CITIES/CHANHASSEN MN
500 AM CDT FRI MAY 06 2016


NOTE: "FAIR" INDICATES FEW OR NO CLOUDS BELOW 12,000 FEET WITH NO
SIGNIFICANT WEATHER AND/OR OBSTRUCTIONS TO VISIBILITY. N/A MEANS
CURRENT SKY AND/OR WEATHER CONDITIONS ARE NOT AVAILABLE.

MNZ060>063-068>070-061100-
   Twin Cities Metro

CITY           SKY/WX    TMP DP  RH WIND       PRES   REMARKS
TWIN CITIES    PTCLDY    62  41  46 SW6       29.87S
ST PAUL        CLEAR     59  42  53 CALM      29.86F
CRYSTAL        CLEAR     64  41  42 W7        29.85S
BLAINE         CLEAR     64  43  45 SW8       29.85S
EDEN PRAIRIE   CLEAR     59  41  51 SW7       29.86S
SOUTH ST PAUL  CLEAR     63  40  43 W9        29.86S
LAKE ELMO      FAIR      59  43  55 W6        29.86F
$$
MNZ001>005-007-008-013>017-022>024-027-028-061100-
   Northwest Minnesota

CITY           SKY/WX    TMP DP  RH WIND       PRES   REMARKS
BEMIDJI        CLEAR     63  42  45 SW5       29.76F
HALLOCK        CLOUDY    61  39  44 SE8       29.66S
ROSEAU         CLOUDY    61  46  59 SW5       29.68R
WARROAD        CLOUDY    64  46  52 SW12      29.67S
THIEF RVR FALL CLEAR     63  39  42 SW12      29.72F
CROOKSTON      CLEAR     57  43  58 S9        29.71F
FOSSTON        CLEAR     54  41  62 S8        29.76S
DETROIT LAKES  PTCLDY    63  43  48 SW10      29.80S
MOORHEAD       MOCLDY    55  43  62 S9        29.77S
PARK RAPIDS    PTCLDY    60  42  51 SW6       29.79F
MAHNOMEN       FAIR      60  42  51 S12       29.76S
$$
MNZ006-009>011-018-025>026-061100-
   North Central Minnesota

CITY           SKY/WX    TMP DP  RH WIND       PRES   REMARKS
BAUDETTE       CLEAR     66  41  40 SW9       29.67F
FLAG ISLAND    CLOUDY    64  41  42 SW15      29.63F
INTL FALLS     MOCLDY    67  42  40 W7        29.69F
WASKISH        PTCLDY    66  46  48 SW14      29.73S
BIG FORK       CLEAR     66  41  39 SW9       29.75S
LONGVILLE      CLEAR     64  43  45 SW7       29.79F
GRAND RAPIDS   PTCLDY    66  39  37 W8        29.80S
CRANE LAKE     MOCLDY    45  43  93 CALM      29.73S
ORR            PTCLDY    61  37  41 CALM      29.71S
COOK           PTCLDY    63  41  45 SW5       29.75S
WALKER         FAIR      64  41  43 SW6       29.78S
$$
MNZ012-019>021-037-061100-
   Northeast Minnesota

CITY           SKY/WX    TMP DP  RH WIND       PRES   REMARKS
DULUTH         CLEAR     66  41  40 W15       29.79R
ELY            MOCLDY    59  39  47 SW6       29.74S
HIBBING        PTCLDY    65  40  39 W7        29.77R
EVELETH        PTCLDY    52  41  66 CALM      29.78R
DULUTH HARBOR  PTCLDY    57  46  67 SW12      29.76F
TWO HARBORS    CLOUDY    70  48  46 W9        29.73S
SILVER BAY     PTCLDY    66  41  39 W6        29.71F
GRAND MARAIS     N/A     42  38  85 CALM      29.72S
G MARAIS ARPRT CLOUDY    61  37  41 W9        29.74S
$$
MNZ029>031-032-039>041-046>048-054>057-064-061100-
   West Central Minnesota

CITY           SKY/WX    TMP DP  RH WIND       PRES   REMARKS
FERGUS FALLS   CLEAR     57  45  62 S8        29.77F
WHEATON        PTCLDY    63  46  55 S8        29.80F
MORRIS         CLOUDY    54  43  66 SE9       29.82S
ALEXANDRIA     CLEAR     60  42  51 SW10      29.84F
ELBOW LAKE     FAIR      55  44  66 S12       29.81F
WADENA         PTCLDY    57  43  58 S6        29.81S
GLENWOOD       CLEAR     52  43  71 S8        29.85F
APPLETON       CLEAR     57  43  58 S5        29.82F
BENSON         CLEAR     54  39  58 S5        29.84S
ORTONVILLE     CLEAR     63  45  51 SW5       29.81F
MADISON        CLEAR     63  43  48 SW10      29.82F
WILLMAR        FAIR      57  43  58 CALM      29.87F
$$
MNZ033>034-036-042>043-049>051-058-059-061100-
   Central Minnesota

CITY           SKY/WX    TMP DP  RH WIND       PRES   REMARKS
ST CLOUD       CLEAR     59  41  51 SW6       29.84S
SAUK CENTRE      N/A     56  42  60 S5        29.85S
PAYNESVILLE    CLEAR     58  40  50 W5        29.86S
AITKIN         PTCLDY    59  39  47 CALM      29.80S
PINE RIVER     PTCLDY    63  45  51 CALM      29.84S
BRAINERD       CLEAR     52  44  74 S3        29.82S
STAPLES        CLEAR     63  39  42 SW6       29.81F
LONG PRAIRIE   FAIR      57  43  58 SW9       29.84S
LITTLE FALLS   CLEAR     55  41  58 CALM      29.83F
LITCHFIELD     CLEAR     61  43  51 SW6       29.87S
BUFFALO        CLEAR     59  42  53 SW5       29.87S
MAPLE LAKE     CLEAR     61  44  53 SW5       29.86F
HUTCHINSON     CLOUDY    60  44  54 SW6       29.89S
$$
MNZ037-044-045-052-053-061100-
   East Central Minnesota

CITY           SKY/WX    TMP DP  RH WIND       PRES   REMARKS
PRINCETON      CLEAR     61  43  51 S3        29.85S
MORA           CLEAR     59  41  51 SW3       29.84S
CAMBRIDGE      CLEAR     64  46  52 SW3       29.82S
RUSH CITY      MOCLDY    60  44  54 SW5       29.83S
MOOSE LAKE     CLEAR     64  39  39 W8        29.79S
HINCKLEY       CLOUDY    52  43  71 SW3       29.82R
CLOQUET        CLEAR     66  37  34 W13G18    29.79S
MCGREGOR       CLEAR     63  43  48 SW5       29.81S
$$
MNZ071>073-080-081-089-090-097-098-061100-
   Southwest Minnesota

CITY           SKY/WX    TMP DP  RH WIND       PRES   REMARKS
MONTEVIDEO     CLEAR     55  43  62 SW5       29.86F
GRANITE FALLS  CLEAR     55  43  64 SE7       29.87F
CANBY          CLEAR     65  45  47 SW16      29.85F
MARSHALL       CLEAR     66  42  41 SW21G26   29.86S
REDWOOD FALLS  CLEAR     56  41  57 S10       29.87F
OLIVIA         CLEAR     55  39  54 S7        29.86F
PIPESTONE      PTCLDY    55  43  62 SW9       29.91F
WINDOM         CLEAR     57  43  58 SW9       29.92S
WORTHINGTON    CLEAR     58  42  55 SW16      29.93F
JACKSON        CLEAR     57  37  47 SW12      29.94S
TRACY          CLEAR     63  43  48 SW18      29.88F
SLAYTON        CLEAR     57  41  54 SW16      29.92S
$$
MNZ065>067-074>077-082>085-091>093-061100-
   South Central Minnesota

CITY           SKY/WX    TMP DP  RH WIND       PRES   REMARKS
MANKATO        CLEAR     59  39  47 SW12      29.90F
NEW ULM        CLEAR     57  41  54 SW9       29.89F
ST JAMES       CLEAR     52  37  58 S7        29.92S
FAIRMONT       CLEAR     59  37  44 SW12      29.92F
GLENCOE        CLEAR     60  45  57 SW5       29.87S
FARIBAULT      CLEAR     61  43  51 S3        29.90S
OWATONNA       CLEAR     57  39  51 SW8       29.91S
WASECA         CLEAR     52  41  66 SW6       29.92F
ALBERT LEA     CLEAR     63  37  39 W9        29.92S
$$
MNZ078>079-086>088-094>096-061100-
   Southeast Minnesota

CITY           SKY/WX    TMP DP  RH WIND       PRES   REMARKS
ROCHESTER      CLEAR     58  40  51 W16       29.90S
RED WING       CLEAR     59  41  51 W7        29.86S
STANTON        CLEAR     57  41  55 S6        29.88S
DODGE CENTER   PTCLDY    57  39  51 W13       29.90S
WINONA         CLEAR     48  43  81 NW3       29.89S
AUSTIN         CLEAR     57  39  51 W7        29.92R
PRESTON        CLEAR     54  38  55 W9        29.91S
$$
ABBREVIATIONS USED IN REMARKS
   TC - TEMPERATURES IN CELSIUS
  WCI - WIND CHILL INDEX
   HX - HEAT INDEX
  VSB - VISIBILITY
$$



USA.gov is the U.S. government's official web portal to all federal, state and local government web resources and services.